Regional Weather Roundup
Issued by NWS

Home | Current Version | Previous Version | Graphics & Text | Print | Product List | Glossary On
Versions: 1 2 3 4 5 6 7 8 9 10 11 12 13 14 15 16 17 18 19 20 21 22 23 24 25 26 27 28 29 30 31 32 33 34 35 36 37 38 39 40 41 42 43 44 45 46 47 48 49 50
000
ASUS43 KLSX 280310
RWRMO

WEATHER SUMMARY FOR MISSOURI
NATIONAL WEATHER SERVICE SPRINGFIELD MO
1000 PM CDT THU APR 27 2017

NOTE: "FAIR" INDICATES FEW OR NO CLOUDS BELOW 12,000 FEET WITH NO
       SIGNIFICANT WEATHER AND/OR OBSTRUCTIONS TO VISIBILITY.
       CURRENT SKY AND/OR WEATHER CONDITIONS ARE NOT AVAILABLE FOR
       CHILLICOTHE AND FARMINGTON.

MOZ001>031-035>038-043-044-053-054-280400-
...NORTHERN AND WESTERN MISSOURI...

CITY           SKY/WX    TMP DP  RH WIND       PRES   REMARKS
KANSAS CTY INT CLOUDY    52  46  80 NE5       29.75F
KANSAS C DTWN  CLOUDY    54  48  80 NE6       29.74F
LEE`S SUMMIT   MOCLDY    53  50  89 E7        29.74F
ST JOSEPH      CLOUDY    51  50  96 NE7       29.77F
CHILLICOTHE      N/A     53  47  79 S8        29.83R
KIRKSVILLE     CLOUDY    53  45  74 S7        29.83R

$$
MOZ066>068-077>081-088>096-101>105-280400-
...SOUTHWEST MISSOURI...

CITY           SKY/WX    TMP DP  RH WIND       PRES   REMARKS
SPRINGFIELD    CLOUDY    60  43  53 E10       29.72F
JOPLIN         CLOUDY    56  48  74 E5        29.73R
BRANSON        CLOUDY    57  46  67 SE14      29.75R

$$
MOZ032>034-039>042-045>050-055>058-069>072-280400-
...CENTRAL MISSOURI...

CITY           SKY/WX    TMP DP  RH WIND       PRES   REMARKS
COLUMBIA       CLOUDY    54  51  90 N6        29.84R
JEFFERSON CITY CLOUDY    57  48  72 E3        29.83R
ROLLA          CLOUDY    55  48  77 NE9       29.80S
SEDALIA        CLOUDY    56  48  74 NE12      29.76F
WHITEMAN AFB   MOCLDY    55  51  86 NE7       29.73F
OSAGE BEACH    CLOUDY    57  46  66 NE7       29.76F

$$
MOZ051-052-059>065-280400-
...EAST CENTRAL MISSOURI...

CITY           SKY/WX    TMP DP  RH WIND       PRES   REMARKS
ST LOUIS INTL  CLOUDY    57  46  66 CALM      29.86R
SPIRIT OF STL  MOCLDY    53  52  96 CALM      29.85R
ST CHARLES     CLOUDY    53  50  89 CALM      29.85R

$$
MOZ072>076-082>087-097>100-106>115-280400-
...SOUTH CENTRAL AND SOUTHEAST MISSOURI...

CITY           SKY/WX    TMP DP  RH WIND       PRES   REMARKS
CAPE GIRARDEAU CLOUDY    55  50  83 CALM      29.86R
FARMINGTON     MOCLDY    56  50  80 S7        29.87R
POPLAR BLUFF   CLOUDY    59  56  89 CALM      29.85R
WEST PLAINS    CLOUDY    58  48  69 SE5       29.82R

$$



USA.gov is the U.S. government's official web portal to all federal, state and local government web resources and services.